Humidity-temperature Sensor

Selected Measurement Type: Relative Humidity

 
Relative Humidity [%]     6 entries per hour
Showing data from 4/4/2021 (00:00:00 Z) to 4/3/2021 (00:01:00 Z)
Previous Next [ Day | 3-Days | 7-Days ]
First Last
Prev [ Day | 3-Days | 7-Days ] Next
First Last

Start Time:     :
End Time:     :     
Time (in GMT) :00 :50 :40 :30 :20 :10
Previous Next [ Day | 3-Days | 7-Days ]
First Last
Prev [ Day | 3-Days | 7-Days ] Next
First Last


123 => good data
MM => data is determined as missing
-- => data not received/configured
Back to Top Back to Top
4/4/2021 00:00 to 23:10 86.81 85.99 85.44 85.09 84.61 84.61
4/3/2021 23:00 to 22:10 83.73 83.65 84.66 84.82 84.55 84.57
4/3/2021 22:00 to 21:10 85.50 85.89 85.29 84.84 83.98 84.35
4/3/2021 21:00 to 20:10 84.33 84.45 84.53 84.43 85.83 88.60
4/3/2021 20:00 to 19:10 88.85 89.05 89.05 88.46 88.17 89.73
4/3/2021 19:00 to 18:10 89.46 90.12 90.33 90.24 90.04 89.83
4/3/2021 18:00 to 17:10 88.66 86.65 87.47 86.92 85.58 87.20
4/3/2021 17:00 to 16:10 89.26 90.57 90.00 89.50 89.22 88.97
4/3/2021 16:00 to 15:10 88.87 88.66 88.72 88.77 88.79 88.70
4/3/2021 15:00 to 14:10 88.64 88.87 88.77 89.11 89.50 91.09
4/3/2021 14:00 to 13:10 92.14 92.28 92.07 91.85 91.79 92.16
4/3/2021 13:00 to 12:10 92.73 93.22 94.09 95.16 96.08 96.49
4/3/2021 12:00 to 11:10 95.61 94.91 96.39 97.05 97.66 97.42
4/3/2021 11:00 to 10:10 96.80 95.98 95.26 94.54 94.00 94.29
4/3/2021 10:00 to 9:10 92.53 91.85 92.65 93.33 94.31 94.66
4/3/2021 09:00 to 8:10 95.51 95.63 95.71 95.92 96.04 95.48
4/3/2021 08:00 to 7:10 95.14 95.42 95.53 96.04 96.90 98.03
4/3/2021 07:00 to 6:10 96.76 93.72 89.92 87.84 87.57 87.51
4/3/2021 06:00 to 5:10 87.66 87.16 87.51 87.22 87.24 87.04
4/3/2021 05:00 to 4:10 86.59 86.03 86.05 86.05 86.46 85.74
4/3/2021 04:00 to 3:10 85.03 85.31 85.48 86.01 85.89 86.01
4/3/2021 03:00 to 2:10 85.50 85.13 84.24 83.96 84.33 83.71
4/3/2021 02:00 to 1:10 83.44 83.13 82.17 82.02 82.13 82.56
4/3/2021 01:00 to 0:10 82.09 81.29 81.63 81.70 82.48 82.05